Time,TemperatureF,DewpointF,PressureIn,WindDirection,WindDirectionDegrees,WindSpeedMPH,WindSpeedGustMPH,Humidity,HourlyPrecipIn,Conditions,Clouds,dailyrainin,SoftwareType,DateUTC
2013-03-29 00:00:00,42.4,29.9,30.15,West,276,0.0,0.0,61,0.00,,,0.00,VWS V14.01,2013-03-29 04:00:00,
2013-03-29 00:05:00,42.4,29.9,30.15,West,276,0.0,0.0,61,0.00,,,0.00,VWS V14.01,2013-03-29 04:05:00,
2013-03-29 00:10:00,42.2,29.7,30.15,WNW,296,2.0,4.0,61,0.00,,,0.00,VWS V14.01,2013-03-29 04:10:00,
2013-03-29 00:15:00,42.2,29.7,30.15,WNW,296,0.0,0.0,61,0.00,,,0.00,VWS V14.01,2013-03-29 04:15:00,
2013-03-29 00:20:00,42.1,29.6,30.15,WNW,296,0.0,0.0,61,0.00,,,0.00,VWS V14.01,2013-03-29 04:20:00,
2013-03-29 00:25:00,42.1,29.6,30.15,WNW,300,0.0,1.0,61,0.00,,,0.00,VWS V14.01,2013-03-29 04:25:00,
2013-03-29 00:30:00,42.1,29.6,30.15,WNW,291,0.0,0.0,61,0.00,,,0.00,VWS V14.01,2013-03-29 04:30:00,
2013-03-29 00:35:00,42.0,29.9,30.15,WNW,291,0.0,2.0,62,0.00,,,0.00,VWS V14.01,2013-03-29 04:35:00,
2013-03-29 00:40:00,42.0,29.5,30.15,WNW,287,0.0,2.0,61,0.00,,,0.00,VWS V14.01,2013-03-29 04:40:00,
2013-03-29 00:45:00,42.0,29.5,30.15,WNW,287,0.0,0.0,61,0.00,,,0.00,VWS V14.01,2013-03-29 04:45:00,
2013-03-29 00:50:00,42.0,29.5,30.15,WNW,287,0.0,0.0,61,0.00,,,0.00,VWS V14.01,2013-03-29 04:50:00,
2013-03-29 00:55:00,42.0,29.5,30.15,WNW,285,0.0,5.0,61,0.00,,,0.00,VWS V14.01,2013-03-29 04:55:00,
2013-03-29 01:00:00,42.0,29.5,30.15,WNW,284,0.0,0.0,61,0.00,,,0.00,VWS V14.01,2013-03-29 05:00:00,
2013-03-29 01:05:00,41.8,29.4,30.15,West,263,0.0,4.0,61,0.00,,,0.00,VWS V14.01,2013-03-29 05:05:00,
2013-03-29 01:10:00,41.8,29.4,30.15,WSW,254,2.0,5.0,61,0.00,,,0.00,VWS V14.01,2013-03-29 05:10:00,
2013-03-29 01:15:00,41.8,29.4,30.16,West,281,6.0,7.0,61,0.00,,,0.00,VWS V14.01,2013-03-29 05:15:00,
2013-03-29 01:20:00,41.8,29.4,30.16,West,259,0.0,7.0,61,0.00,,,0.00,VWS V14.01,2013-03-29 05:20:00,
2013-03-29 01:25:00,41.7,29.3,30.16,West,259,1.0,7.0,61,0.00,,,0.00,VWS V14.01,2013-03-29 05:25:00,
2013-03-29 01:30:00,41.7,29.7,30.16,SW,219,3.0,3.0,62,0.00,,,0.00,VWS V14.01,2013-03-29 05:30:00,
2013-03-29 01:35:00,41.7,29.3,30.16,East,90,2.0,6.0,61,0.00,,,0.00,VWS V14.01,2013-03-29 05:35:00,
2013-03-29 01:40:00,41.7,29.3,30.16,NE,54,0.0,7.0,61,0.00,,,0.00,VWS V14.01,2013-03-29 05:40:00,
2013-03-29 01:45:00,41.7,29.3,30.16,NE,54,0.0,0.0,61,0.00,,,0.00,VWS V14.01,2013-03-29 05:45:00,
2013-03-29 01:50:00,41.7,29.3,30.16,WSW,246,0.0,6.0,61,0.00,,,0.00,VWS V14.01,2013-03-29 05:50:00,
2013-03-29 01:55:00,41.5,29.5,30.16,WNW,289,0.0,6.0,62,0.00,,,0.00,VWS V14.01,2013-03-29 05:55:00,
2013-03-29 02:00:00,41.5,29.5,30.16,WNW,289,0.0,0.0,62,0.00,,,0.00,VWS V14.01,2013-03-29 06:00:00,
2013-03-29 02:05:00,41.4,29.4,30.16,NW,325,0.0,0.0,62,0.00,,,0.00,VWS V14.01,2013-03-29 06:05:00,
2013-03-29 02:10:00,41.4,29.4,30.16,NW,325,0.0,0.0,62,0.00,,,0.00,VWS V14.01,2013-03-29 06:10:00,
2013-03-29 02:15:00,41.2,29.2,30.16,NW,325,0.0,0.0,62,0.00,,,0.00,VWS V14.01,2013-03-29 06:15:00,
2013-03-29 02:20:00,41.1,29.5,30.16,WNW,301,1.0,5.0,63,0.00,,,0.00,VWS V14.01,2013-03-29 06:20:00,
2013-03-29 02:25:00,41.0,29.4,30.16,SW,234,0.0,5.0,63,0.00,,,0.00,VWS V14.01,2013-03-29 06:25:00,
2013-03-29 02:30:00,41.0,29.4,30.16,West,277,0.0,0.0,63,0.00,,,0.00,VWS V14.01,2013-03-29 06:30:00,
2013-03-29 02:35:00,40.8,29.2,30.16,West,272,4.0,5.0,63,0.00,,,0.00,VWS V14.01,2013-03-29 06:35:00,
2013-03-29 02:40:00,40.7,29.1,30.16,WSW,246,0.0,5.0,63,0.00,,,0.00,VWS V14.01,2013-03-29 06:40:00,
2013-03-29 02:45:00,40.5,28.9,30.16,WSW,244,0.0,0.0,63,0.00,,,0.00,VWS V14.01,2013-03-29 06:45:00,
2013-03-29 02:50:00,40.5,28.9,30.16,SW,221,0.0,1.0,63,0.00,,,0.00,VWS V14.01,2013-03-29 06:50:00,
2013-03-29 02:55:00,40.4,29.2,30.16,SW,221,0.0,1.0,64,0.00,,,0.00,VWS V14.01,2013-03-29 06:55:00,
2013-03-29 03:00:00,40.4,29.2,30.16,West,263,0.0,0.0,64,0.00,,,0.00,VWS V14.01,2013-03-29 07:00:00,
2013-03-29 03:05:00,40.2,29.0,30.16,West,263,0.0,0.0,64,0.00,,,0.00,VWS V14.01,2013-03-29 07:05:00,
2013-03-29 03:10:00,40.1,28.9,30.16,WSW,257,0.0,1.0,64,0.00,,,0.00,VWS V14.01,2013-03-29 07:10:00,
2013-03-29 03:15:00,40.0,28.8,30.16,WSW,257,0.0,0.0,64,0.00,,,0.00,VWS V14.01,2013-03-29 07:15:00,
2013-03-29 03:20:00,40.0,28.8,30.16,WSW,257,0.0,3.0,64,0.00,,,0.00,VWS V14.01,2013-03-29 07:20:00,
2013-03-29 03:25:00,39.7,28.5,30.16,WSW,257,0.0,3.0,64,0.00,,,0.00,VWS V14.01,2013-03-29 07:25:00,
2013-03-29 03:30:00,39.5,28.7,30.16,WSW,257,0.0,0.0,65,0.00,,,0.00,VWS V14.01,2013-03-29 07:30:00,
2013-03-29 03:35:00,39.4,28.6,30.16,WSW,257,0.0,0.0,65,0.00,,,0.00,VWS V14.01,2013-03-29 07:35:00,
2013-03-29 03:40:00,39.2,28.8,30.16,NW,321,0.0,2.0,66,0.00,,,0.00,VWS V14.01,2013-03-29 07:40:00,
2013-03-29 03:45:00,39.1,29.1,30.16,NW,321,0.0,0.0,67,0.00,,,0.00,VWS V14.01,2013-03-29 07:45:00,
2013-03-29 03:50:00,39.0,29.0,30.16,NW,321,0.0,0.0,67,0.00,,,0.00,VWS V14.01,2013-03-29 07:50:00,
2013-03-29 03:55:00,38.5,28.9,30.16,NW,321,0.0,0.0,68,0.00,,,0.00,VWS V14.01,2013-03-29 07:55:00,
2013-03-29 04:00:00,38.2,28.9,30.15,NW,321,0.0,0.0,69,0.00,,,0.00,VWS V14.01,2013-03-29 08:00:00,
2013-03-29 04:05:00,37.8,28.9,30.15,NW,321,0.0,0.0,70,0.00,,,0.00,VWS V14.01,2013-03-29 08:05:00,
2013-03-29 04:10:00,37.5,28.6,30.15,NW,321,0.0,0.0,70,0.00,,,0.00,VWS V14.01,2013-03-29 08:10:00,
2013-03-29 04:15:00,37.1,28.6,30.15,NW,321,0.0,0.0,71,0.00,,,0.00,VWS V14.01,2013-03-29 08:15:00,
2013-03-29 04:20:00,36.8,28.3,30.15,NW,321,0.0,0.0,71,0.00,,,0.00,VWS V14.01,2013-03-29 08:20:00,
2013-03-29 04:25:00,36.7,28.5,30.15,NW,321,0.0,0.0,72,0.00,,,0.00,VWS V14.01,2013-03-29 08:25:00,
2013-03-29 04:30:00,36.4,28.6,30.15,NW,321,0.0,0.0,73,0.00,,,0.00,VWS V14.01,2013-03-29 08:30:00,
2013-03-29 04:35:00,35.9,28.4,30.15,NW,321,0.0,0.0,74,0.00,,,0.00,VWS V14.01,2013-03-29 08:35:00,
2013-03-29 04:40:00,35.7,28.6,30.15,NW,321,0.0,0.0,75,0.00,,,0.00,VWS V14.01,2013-03-29 08:40:00,
2013-03-29 04:45:00,35.4,28.3,30.15,NNE,16,0.0,0.0,75,0.00,,,0.00,VWS V14.01,2013-03-29 08:45:00,
2013-03-29 04:50:00,34.9,28.1,30.15,NNE,16,0.0,0.0,76,0.00,,,0.00,VWS V14.01,2013-03-29 08:50:00,
2013-03-29 04:55:00,34.6,28.1,30.15,NNE,16,0.0,0.0,77,0.00,,,0.00,VWS V14.01,2013-03-29 08:55:00,
2013-03-29 05:00:00,34.5,28.0,30.15,NNE,16,0.0,0.0,77,0.00,,,0.00,VWS V14.01,2013-03-29 09:00:00,
2013-03-29 05:04:00,34.3,27.9,30.15,NNE,16,0.0,0.0,77,0.00,,,0.00,VWS V14.01,2013-03-29 09:04:00,
2013-03-29 05:09:00,34.3,28.2,30.15,NNE,16,0.0,0.0,78,0.00,,,0.00,VWS V14.01,2013-03-29 09:09:00,
2013-03-29 05:14:00,34.0,27.9,30.15,NNE,18,0.0,0.0,78,0.00,,,0.00,VWS V14.01,2013-03-29 09:14:00,
2013-03-29 05:15:00,34.0,27.9,30.15,NNE,18,0.0,4.0,78,0.00,,,0.00,VWS V14.01,2013-03-29 09:15:00,
2013-03-29 05:19:00,33.7,27.6,30.15,NNE,18,0.0,0.0,78,0.00,,,0.00,VWS V14.01,2013-03-29 09:19:00,
2013-03-29 05:24:00,33.3,27.5,30.15,NNE,18,0.0,2.0,79,0.00,,,0.00,VWS V14.01,2013-03-29 09:24:00,
2013-03-29 05:29:00,33.0,27.5,30.15,NNE,18,0.0,2.0,80,0.00,,,0.00,VWS V14.01,2013-03-29 09:29:00,
2013-03-29 05:30:00,33.0,27.5,30.15,NNE,18,0.0,2.0,80,0.00,,,0.00,VWS V14.01,2013-03-29 09:30:00,
2013-03-29 05:34:00,32.7,27.5,30.15,NNE,18,0.0,0.0,81,0.00,,,0.00,VWS V14.01,2013-03-29 09:34:00,
2013-03-29 05:39:00,32.4,27.2,30.15,NNE,18,0.0,0.0,81,0.00,,,0.00,VWS V14.01,2013-03-29 09:39:00,
2013-03-29 05:44:00,32.3,27.1,30.15,NNE,18,0.0,0.0,81,0.00,,,0.00,VWS V14.01,2013-03-29 09:44:00,
2013-03-29 05:45:00,32.3,27.1,30.15,NNE,18,0.0,0.0,81,0.00,,,0.00,VWS V14.01,2013-03-29 09:45:00,
2013-03-29 05:49:00,32.1,27.2,30.15,NNE,18,0.0,0.0,82,0.00,,,0.00,VWS V14.01,2013-03-29 09:49:00,
2013-03-29 05:54:00,31.8,26.9,30.15,NNE,18,0.0,0.0,82,0.00,,,0.00,VWS V14.01,2013-03-29 09:54:00,
2013-03-29 05:59:00,31.7,27.1,30.15,NNE,18,0.0,0.0,83,0.00,,,0.00,VWS V14.01,2013-03-29 09:59:00,
2013-03-29 06:00:00,31.7,27.1,30.15,NNE,18,0.0,0.0,83,0.00,,,0.00,VWS V14.01,2013-03-29 10:00:00,
2013-03-29 06:04:00,31.5,26.9,30.15,NNE,18,0.0,0.0,83,0.00,,,0.00,VWS V14.01,2013-03-29 10:04:00,
2013-03-29 06:09:00,31.4,27.1,30.15,NNE,18,0.0,0.0,84,0.00,,,0.00,VWS V14.01,2013-03-29 10:09:00,
2013-03-29 06:14:00,31.1,26.8,30.15,NNE,18,0.0,0.0,84,0.00,,,0.00,VWS V14.01,2013-03-29 10:14:00,
2013-03-29 06:15:00,31.1,26.8,30.15,NNE,18,0.0,0.0,84,0.00,,,0.00,VWS V14.01,2013-03-29 10:15:00,
2013-03-29 06:19:00,30.9,26.9,30.15,NNE,18,0.0,0.0,85,0.00,,,0.00,VWS V14.01,2013-03-29 10:19:00,
2013-03-29 06:24:00,30.8,26.8,30.15,NNE,18,0.0,0.0,85,0.00,,,0.00,VWS V14.01,2013-03-29 10:24:00,
2013-03-29 06:29:00,30.6,26.6,30.16,NNE,18,0.0,0.0,85,0.00,,,0.00,VWS V14.01,2013-03-29 10:29:00,
2013-03-29 06:30:00,30.6,26.6,30.16,NNE,18,0.0,0.0,85,0.00,,,0.00,VWS V14.01,2013-03-29 10:30:00,
2013-03-29 06:34:00,30.5,26.5,30.16,NNE,18,0.0,0.0,85,0.00,,,0.00,VWS V14.01,2013-03-29 10:34:00,
2013-03-29 06:39:00,30.3,26.6,30.16,NNE,18,0.0,0.0,86,0.00,,,0.00,VWS V14.01,2013-03-29 10:39:00,
2013-03-29 06:44:00,30.2,26.5,30.16,NNE,18,0.0,0.0,86,0.00,,,0.00,VWS V14.01,2013-03-29 10:44:00,
2013-03-29 06:45:00,30.2,26.5,30.16,NNE,18,0.0,0.0,86,0.00,,,0.00,VWS V14.01,2013-03-29 10:45:00,
2013-03-29 06:49:00,30.0,26.3,30.16,NNE,18,0.0,0.0,86,0.00,,,0.00,VWS V14.01,2013-03-29 10:49:00,
2013-03-29 06:54:00,30.0,26.6,30.16,NNE,18,0.0,0.0,87,0.00,,,0.00,VWS V14.01,2013-03-29 10:54:00,
2013-03-29 06:59:00,29.9,26.5,30.16,NNE,18,0.0,0.0,87,0.00,,,0.00,VWS V14.01,2013-03-29 10:59:00,
2013-03-29 07:00:00,29.9,26.5,30.16,NNE,18,0.0,0.0,87,0.00,,,0.00,VWS V14.01,2013-03-29 11:00:00,
2013-03-29 07:04:00,29.9,26.5,30.16,NNE,18,0.0,0.0,87,0.00,,,0.00,VWS V14.01,2013-03-29 11:04:00,
2013-03-29 07:09:00,29.7,26.3,30.16,NNE,18,0.0,0.0,87,0.00,,,0.00,VWS V14.01,2013-03-29 11:09:00,
2013-03-29 07:14:00,29.7,26.6,30.17,NNE,18,0.0,0.0,88,0.00,,,0.00,VWS V14.01,2013-03-29 11:14:00,
2013-03-29 07:15:00,29.7,26.6,30.17,NNE,18,0.0,0.0,88,0.00,,,0.00,VWS V14.01,2013-03-29 11:15:00,
2013-03-29 07:19:00,29.7,26.6,30.17,NNE,18,0.0,0.0,88,0.00,,,0.00,VWS V14.01,2013-03-29 11:19:00,
2013-03-29 07:24:00,29.6,26.5,30.17,NNE,18,0.0,0.0,88,0.00,,,0.00,VWS V14.01,2013-03-29 11:24:00,
2013-03-29 07:29:00,29.6,26.5,30.17,NNE,18,0.0,0.0,88,0.00,,,0.00,VWS V14.01,2013-03-29 11:29:00,
2013-03-29 07:30:00,29.6,26.5,30.17,NNE,18,0.0,0.0,88,0.00,,,0.00,VWS V14.01,2013-03-29 11:30:00,
2013-03-29 07:34:00,29.6,26.8,30.17,NNE,18,0.0,0.0,89,0.00,,,0.00,VWS V14.01,2013-03-29 11:34:00,
2013-03-29 07:39:00,29.7,26.9,30.17,NNE,18,0.0,0.0,89,0.00,,,0.00,VWS V14.01,2013-03-29 11:39:00,
2013-03-29 07:44:00,30.5,27.6,30.17,NNE,18,0.0,0.0,89,0.00,,,0.00,VWS V14.01,2013-03-29 11:44:00,
2013-03-29 07:45:00,30.5,27.6,30.17,NNE,18,0.0,0.0,89,0.00,,,0.00,VWS V14.01,2013-03-29 11:45:00,
2013-03-29 07:49:00,30.9,27.5,30.17,NNE,18,0.0,0.0,87,0.00,,,0.00,VWS V14.01,2013-03-29 11:49:00,
2013-03-29 07:54:00,32.1,28.1,30.17,NNE,18,0.0,0.0,85,0.00,,,0.00,VWS V14.01,2013-03-29 11:54:00,
2013-03-29 07:59:00,33.0,28.4,30.17,NNE,18,0.0,0.0,83,0.00,,,0.00,VWS V14.01,2013-03-29 11:59:00,
2013-03-29 08:00:00,33.0,28.1,30.17,NNE,18,0.0,0.0,82,0.00,,,0.00,VWS V14.01,2013-03-29 12:00:00,
2013-03-29 08:04:00,33.7,28.2,30.17,NNE,18,0.0,0.0,80,0.00,,,0.00,VWS V14.01,2013-03-29 12:04:00,
2013-03-29 08:09:00,34.6,28.5,30.17,NNE,18,0.0,0.0,78,0.00,,,0.00,VWS V14.01,2013-03-29 12:09:00,
2013-03-29 08:14:00,35.4,29.2,30.17,NNE,18,0.0,0.0,78,0.00,,,0.00,VWS V14.01,2013-03-29 12:14:00,
2013-03-29 08:15:00,35.5,29.3,30.17,NNE,18,0.0,0.0,78,0.00,,,0.00,VWS V14.01,2013-03-29 12:15:00,
2013-03-29 08:19:00,36.7,29.5,30.17,NNE,18,0.0,0.0,75,0.00,,,0.00,VWS V14.01,2013-03-29 12:19:00,
2013-03-29 08:24:00,38.2,28.6,30.17,NNE,18,0.0,0.0,68,0.00,,,0.00,VWS V14.01,2013-03-29 12:24:00,
2013-03-29 08:29:00,38.7,29.4,30.17,NNE,18,0.0,0.0,69,0.00,,,0.00,VWS V14.01,2013-03-29 12:29:00,
2013-03-29 08:30:00,38.8,29.5,30.17,NNE,18,0.0,0.0,69,0.00,,,0.00,VWS V14.01,2013-03-29 12:30:00,
2013-03-29 08:34:00,39.4,29.0,30.17,NNE,18,0.0,1.0,66,0.00,,,0.00,VWS V14.01,2013-03-29 12:34:00,
2013-03-29 08:39:00,40.2,28.6,30.17,NNE,18,0.0,1.0,63,0.00,,,0.00,VWS V14.01,2013-03-29 12:39:00,
2013-03-29 08:44:00,40.2,28.6,30.17,West,275,0.0,6.0,63,0.00,,,0.00,VWS V14.01,2013-03-29 12:44:00,
2013-03-29 08:45:00,40.2,28.6,30.17,West,275,0.0,6.0,63,0.00,,,0.00,VWS V14.01,2013-03-29 12:45:00,
2013-03-29 08:49:00,40.5,28.9,30.17,North,5,2.0,5.0,63,0.00,,,0.00,VWS V14.01,2013-03-29 12:49:00,
2013-03-29 08:54:00,40.5,28.9,30.17,NW,308,0.0,5.0,63,0.00,,,0.00,VWS V14.01,2013-03-29 12:54:00,
2013-03-29 08:59:00,41.4,29.0,30.17,NNW,332,0.0,5.0,61,0.00,,,0.00,VWS V14.01,2013-03-29 12:59:00,
2013-03-29 09:00:00,41.4,29.0,30.17,NNW,332,0.0,5.0,61,0.00,,,0.00,VWS V14.01,2013-03-29 13:00:00,
2013-03-29 09:04:00,41.7,28.9,30.17,NNW,337,0.0,5.0,60,0.00,,,0.00,VWS V14.01,2013-03-29 13:04:00,
2013-03-29 09:09:00,42.0,29.1,30.17,North,360,0.0,6.0,60,0.00,,,0.00,VWS V14.01,2013-03-29 13:09:00,
2013-03-29 09:14:00,42.1,28.8,30.17,SSW,213,0.0,6.0,59,0.00,,,0.00,VWS V14.01,2013-03-29 13:14:00,
2013-03-29 09:15:00,42.2,28.9,30.17,SSW,213,0.0,6.0,59,0.00,,,0.00,VWS V14.01,2013-03-29 13:15:00,
2013-03-29 09:19:00,42.7,28.5,30.17,WNW,284,0.0,5.0,57,0.00,,,0.00,VWS V14.01,2013-03-29 13:19:00,
2013-03-29 09:24:00,42.4,28.3,30.17,NNW,333,6.0,6.0,57,0.00,,,0.00,VWS V14.01,2013-03-29 13:24:00,
2013-03-29 09:29:00,42.2,28.1,30.17,NNE,19,2.0,7.0,57,0.00,,,0.00,VWS V14.01,2013-03-29 13:29:00,
2013-03-29 09:30:00,42.4,28.3,30.17,ENE,60,0.0,7.0,57,0.00,,,0.00,VWS V14.01,2013-03-29 13:30:00,
2013-03-29 09:34:00,42.8,28.6,30.17,NNW,346,7.0,7.0,57,0.00,,,0.00,VWS V14.01,2013-03-29 13:34:00,
2013-03-29 09:39:00,42.8,27.8,30.17,WSW,242,0.0,9.0,55,0.00,,,0.00,VWS V14.01,2013-03-29 13:39:00,
2013-03-29 09:44:00,43.4,27.9,30.17,North,355,7.0,9.0,54,0.00,,,0.00,VWS V14.01,2013-03-29 13:44:00,
2013-03-29 09:45:00,43.5,28.0,30.17,NW,321,7.0,9.0,54,0.00,,,0.00,VWS V14.01,2013-03-29 13:45:00,
2013-03-29 09:49:00,44.2,28.6,30.17,NNE,19,0.0,7.0,54,0.00,,,0.00,VWS V14.01,2013-03-29 13:49:00,
2013-03-29 09:54:00,44.0,28.0,30.17,West,274,0.0,7.0,53,0.00,,,0.00,VWS V14.01,2013-03-29 13:54:00,
2013-03-29 09:59:00,44.0,28.0,30.17,WNW,299,3.0,7.0,53,0.00,,,0.00,VWS V14.01,2013-03-29 13:59:00,
2013-03-29 10:00:00,44.1,28.1,30.17,WNW,295,12.0,14.0,53,0.00,,,0.00,VWS V14.01,2013-03-29 14:00:00,
2013-03-29 10:04:00,44.2,27.7,30.17,West,277,0.0,12.0,52,0.00,,,0.00,VWS V14.01,2013-03-29 14:04:00,
2013-03-29 10:09:00,44.8,27.3,30.17,North,5,0.0,12.0,50,0.00,,,0.00,VWS V14.01,2013-03-29 14:09:00,
2013-03-29 10:14:00,45.3,27.8,30.17,NNW,330,5.0,12.0,50,0.00,,,0.00,VWS V14.01,2013-03-29 14:14:00,
2013-03-29 10:15:00,45.4,27.9,30.17,West,280,6.0,12.0,50,0.00,,,0.00,VWS V14.01,2013-03-29 14:15:00,
2013-03-29 10:19:00,45.0,27.5,30.17,WSW,252,0.0,10.0,50,0.00,,,0.00,VWS V14.01,2013-03-29 14:19:00,
2013-03-29 10:24:00,44.7,27.2,30.17,NNW,329,0.0,10.0,50,0.00,,,0.00,VWS V14.01,2013-03-29 14:24:00,
2013-03-29 10:29:00,45.1,27.1,30.17,NW,312,4.0,10.0,49,0.00,,,0.00,VWS V14.01,2013-03-29 14:29:00,
2013-03-29 10:30:00,45.1,27.1,30.17,NW,311,7.0,10.0,49,0.00,,,0.00,VWS V14.01,2013-03-29 14:30:00,
2013-03-29 10:34:00,45.6,28.0,30.17,North,5,0.0,7.0,50,0.00,,,0.00,VWS V14.01,2013-03-29 14:34:00,
2013-03-29 10:39:00,46.1,27.0,30.17,NE,50,4.0,7.0,47,0.00,,,0.00,VWS V14.01,2013-03-29 14:39:00,
2013-03-29 10:44:00,45.9,26.8,30.16,ENE,59,4.0,10.0,47,0.00,,,0.00,VWS V14.01,2013-03-29 14:44:00,
2013-03-29 10:45:00,45.7,27.1,30.16,ENE,65,5.0,10.0,48,0.00,,,0.00,VWS V14.01,2013-03-29 14:45:00,
2013-03-29 10:49:00,46.4,27.3,30.16,West,266,2.0,5.0,47,0.00,,,0.00,VWS V14.01,2013-03-29 14:49:00,
2013-03-29 10:54:00,47.2,28.5,30.16,SSE,166,0.0,9.0,48,0.00,,,0.00,VWS V14.01,2013-03-29 14:54:00,
2013-03-29 10:59:00,47.3,27.6,30.16,North,355,0.0,9.0,46,0.00,,,0.00,VWS V14.01,2013-03-29 14:59:00,
2013-03-29 11:00:00,47.3,27.6,30.16,North,5,0.0,9.0,46,0.00,,,0.00,VWS V14.01,2013-03-29 15:00:00,
2013-03-29 11:04:00,47.8,27.0,30.16,West,272,6.0,12.0,44,0.00,,,0.00,VWS V14.01,2013-03-29 15:04:00,
2013-03-29 11:09:00,47.9,27.0,30.16,NE,55,4.0,12.0,44,0.00,,,0.00,VWS V14.01,2013-03-29 15:09:00,
2013-03-29 11:14:00,47.9,25.9,30.15,West,260,5.0,12.0,42,0.00,,,0.00,VWS V14.01,2013-03-29 15:14:00,
2013-03-29 11:15:00,47.8,26.4,30.15,West,269,5.0,12.0,43,0.00,,,0.00,VWS V14.01,2013-03-29 15:15:00,
2013-03-29 11:19:00,47.0,26.8,30.15,WNW,289,0.0,8.0,45,0.00,,,0.00,VWS V14.01,2013-03-29 15:19:00,
2013-03-29 11:24:00,47.0,26.2,30.15,WNW,284,4.0,8.0,44,0.00,,,0.00,VWS V14.01,2013-03-29 15:24:00,
2013-03-29 11:29:00,47.3,26.0,30.15,SSW,210,4.0,9.0,43,0.00,,,0.00,VWS V14.01,2013-03-29 15:29:00,
2013-03-29 11:30:00,47.5,26.1,30.15,SW,215,4.0,9.0,43,0.00,,,0.00,VWS V14.01,2013-03-29 15:30:00,
2013-03-29 11:34:00,47.3,25.4,30.15,WNW,290,0.0,6.0,42,0.00,,,0.00,VWS V14.01,2013-03-29 15:34:00,
2013-03-29 11:39:00,47.6,26.2,30.15,WSW,245,5.0,9.0,43,0.00,,,0.00,VWS V14.01,2013-03-29 15:39:00,
2013-03-29 11:44:00,48.8,26.7,30.15,WNW,292,0.0,9.0,42,0.00,,,0.00,VWS V14.01,2013-03-29 15:44:00,
2013-03-29 11:45:00,48.8,26.8,30.15,West,279,6.0,9.0,42,0.00,,,0.00,VWS V14.01,2013-03-29 15:45:00,
2013-03-29 11:49:00,48.1,25.5,30.15,West,267,9.0,14.0,41,0.00,,,0.00,VWS V14.01,2013-03-29 15:49:00,
2013-03-29 11:54:00,48.1,26.1,30.15,West,280,8.0,14.0,42,0.00,,,0.00,VWS V14.01,2013-03-29 15:54:00,
2013-03-29 11:59:00,49.1,26.4,30.14,NNW,345,0.0,14.0,41,0.00,,,0.00,VWS V14.01,2013-03-29 15:59:00,
2013-03-29 12:00:00,49.3,26.0,30.14,WNW,298,1.0,14.0,40,0.00,,,0.00,VWS V14.01,2013-03-29 16:00:00,
2013-03-29 12:04:00,49.5,25.6,30.14,NNE,15,2.0,7.0,39,0.00,,,0.00,VWS V14.01,2013-03-29 16:04:00,
2013-03-29 12:09:00,49.1,25.2,30.14,NNW,345,5.0,9.0,39,0.00,,,0.00,VWS V14.01,2013-03-29 16:09:00,
2013-03-29 12:14:00,48.5,25.3,30.14,NE,38,5.0,11.0,40,0.00,,,0.00,VWS V14.01,2013-03-29 16:14:00,
2013-03-29 12:15:00,48.4,25.2,30.14,NE,34,12.0,12.0,40,0.00,,,0.00,VWS V14.01,2013-03-29 16:15:00,
2013-03-29 12:19:00,48.4,27.0,30.14,NE,48,5.0,12.0,43,0.00,,,0.00,VWS V14.01,2013-03-29 16:19:00,
2013-03-29 12:24:00,49.0,25.8,30.14,WSW,249,7.0,12.0,40,0.00,,,0.00,VWS V14.01,2013-03-29 16:24:00,
2013-03-29 12:29:00,48.7,24.9,30.14,West,277,7.0,12.0,39,0.00,,,0.00,VWS V14.01,2013-03-29 16:29:00,
2013-03-29 12:30:00,48.5,25.3,30.14,WSW,242,8.0,12.0,40,0.00,,,0.00,VWS V14.01,2013-03-29 16:30:00,
2013-03-29 12:34:00,48.5,24.7,30.14,West,271,16.0,16.0,39,0.00,,,0.00,VWS V14.01,2013-03-29 16:34:00,
2013-03-29 12:39:00,48.8,25.0,30.14,NNW,341,5.0,16.0,39,0.00,,,0.00,VWS V14.01,2013-03-29 16:39:00,
2013-03-29 12:44:00,48.5,24.1,30.13,West,279,5.0,16.0,38,0.00,,,0.00,VWS V14.01,2013-03-29 16:44:00,
2013-03-29 12:45:00,48.5,24.1,30.13,WSW,247,8.0,16.0,38,0.00,,,0.00,VWS V14.01,2013-03-29 16:45:00,
2013-03-29 12:49:00,49.4,25.5,30.13,NE,42,9.0,16.0,39,0.00,,,0.00,VWS V14.01,2013-03-29 16:49:00,
2013-03-29 12:54:00,49.4,24.2,30.13,WNW,296,6.0,16.0,37,0.00,,,0.00,VWS V14.01,2013-03-29 16:54:00,
2013-03-29 12:59:00,49.4,25.5,30.12,West,275,6.0,19.0,39,0.00,,,0.00,VWS V14.01,2013-03-29 16:59:00,
2013-03-29 13:00:00,49.4,25.5,30.12,SW,236,7.0,19.0,39,0.00,,,0.00,VWS V14.01,2013-03-29 17:00:00,
2013-03-29 13:04:00,49.8,25.9,30.12,NW,323,0.0,9.0,39,0.00,,,0.00,VWS V14.01,2013-03-29 17:04:00,
2013-03-29 13:09:00,50.0,25.4,30.12,WSW,240,0.0,9.0,38,0.00,,,0.00,VWS V14.01,2013-03-29 17:09:00,
2013-03-29 13:14:00,49.7,26.4,30.12,WSW,239,7.0,9.0,40,0.00,,,0.00,VWS V14.01,2013-03-29 17:14:00,
2013-03-29 13:15:00,49.7,26.4,30.12,West,272,6.0,9.0,40,0.00,,,0.00,VWS V14.01,2013-03-29 17:15:00,
2013-03-29 13:19:00,49.8,26.5,30.12,NE,40,0.0,12.0,40,0.00,,,0.00,VWS V14.01,2013-03-29 17:19:00,
2013-03-29 13:24:00,51.2,27.1,30.12,East,89,7.0,12.0,39,0.00,,,0.00,VWS V14.01,2013-03-29 17:24:00,
2013-03-29 13:29:00,51.0,26.9,30.12,NNW,329,11.0,13.0,39,0.00,,,0.00,VWS V14.01,2013-03-29 17:29:00,
2013-03-29 13:30:00,50.9,26.8,30.12,WSW,257,9.0,13.0,39,0.00,,,0.00,VWS V14.01,2013-03-29 17:30:00,
2013-03-29 13:34:00,49.7,27.0,30.12,NNE,30,5.0,18.0,41,0.00,,,0.00,VWS V14.01,2013-03-29 17:34:00,
2013-03-29 13:39:00,49.5,26.8,30.12,North,349,2.0,18.0,41,0.00,,,0.00,VWS V14.01,2013-03-29 17:39:00,
2013-03-29 13:44:00,50.1,27.3,30.12,WNW,286,0.0,18.0,41,0.00,,,0.00,VWS V14.01,2013-03-29 17:44:00,
2013-03-29 13:45:00,50.1,27.3,30.12,WSW,257,5.0,18.0,41,0.00,,,0.00,VWS V14.01,2013-03-29 17:45:00,
2013-03-29 13:49:00,49.7,27.0,30.12,SW,236,8.0,12.0,41,0.00,,,0.00,VWS V14.01,2013-03-29 17:49:00,
2013-03-29 13:54:00,49.3,27.8,30.12,West,275,9.0,13.0,43,0.00,,,0.00,VWS V14.01,2013-03-29 17:54:00,
2013-03-29 13:59:00,49.3,27.8,30.11,WSW,250,4.0,15.0,43,0.00,,,0.00,VWS V14.01,2013-03-29 17:59:00,
2013-03-29 14:00:00,49.3,27.8,30.11,WSW,237,7.0,15.0,43,0.00,,,0.00,VWS V14.01,2013-03-29 18:00:00,
2013-03-29 14:04:00,49.5,28.5,30.11,SW,224,6.0,8.0,44,0.00,,,0.00,VWS V14.01,2013-03-29 18:04:00,
2013-03-29 14:09:00,49.3,27.8,30.11,SW,236,7.0,10.0,43,0.00,,,0.00,VWS V14.01,2013-03-29 18:09:00,
2013-03-29 14:14:00,49.1,28.1,30.11,West,259,11.0,11.0,44,0.00,,,0.00,VWS V14.01,2013-03-29 18:14:00,
2013-03-29 14:15:00,49.0,28.0,30.11,SW,232,8.0,16.0,44,0.00,,,0.00,VWS V14.01,2013-03-29 18:15:00,
2013-03-29 14:19:00,48.8,28.4,30.11,East,96,0.0,15.0,45,0.00,,,0.00,VWS V14.01,2013-03-29 18:19:00,
2013-03-29 14:24:00,48.8,28.4,30.11,SW,225,7.0,15.0,45,0.00,,,0.00,VWS V14.01,2013-03-29 18:24:00,
2013-03-29 14:29:00,48.8,29.0,30.10,NE,35,1.0,15.0,46,0.00,,,0.00,VWS V14.01,2013-03-29 18:29:00,
2013-03-29 14:30:00,48.8,29.0,30.10,West,266,6.0,15.0,46,0.00,,,0.00,VWS V14.01,2013-03-29 18:30:00,
2013-03-29 14:34:00,48.7,28.3,30.10,West,279,6.0,12.0,45,0.00,,,0.00,VWS V14.01,2013-03-29 18:34:00,
2013-03-29 14:39:00,48.5,28.1,30.10,West,277,6.0,12.0,45,0.00,,,0.00,VWS V14.01,2013-03-29 18:39:00,
2013-03-29 14:44:00,48.4,28.6,30.10,ENE,71,0.0,12.0,46,0.00,,,0.00,VWS V14.01,2013-03-29 18:44:00,
2013-03-29 14:45:00,48.5,28.7,30.10,West,269,0.0,12.0,46,0.00,,,0.00,VWS V14.01,2013-03-29 18:45:00,
2013-03-29 14:49:00,48.4,28.6,30.10,West,261,6.0,11.0,46,0.00,,,0.00,VWS V14.01,2013-03-29 18:49:00,
2013-03-29 14:54:00,48.1,28.8,30.10,NW,319,9.0,11.0,47,0.00,,,0.00,VWS V14.01,2013-03-29 18:54:00,
2013-03-29 14:59:00,48.1,28.8,30.10,SSW,208,7.0,11.0,47,0.00,,,0.00,VWS V14.01,2013-03-29 18:59:00,
2013-03-29 15:00:00,48.1,28.8,30.10,WSW,248,11.0,12.0,47,0.00,,,0.00,VWS V14.01,2013-03-29 19:00:00,
2013-03-29 15:04:00,47.8,29.1,30.10,West,281,5.0,12.0,48,0.00,,,0.00,VWS V14.01,2013-03-29 19:04:00,
2013-03-29 15:09:00,47.6,28.9,30.10,NE,51,5.0,14.0,48,0.00,,,0.00,VWS V14.01,2013-03-29 19:09:00,
2013-03-29 15:14:00,47.6,29.4,30.11,WSW,254,6.0,14.0,49,0.00,,,0.00,VWS V14.01,2013-03-29 19:14:00,
2013-03-29 15:15:00,47.6,29.4,30.11,NNW,342,5.0,14.0,49,0.00,,,0.00,VWS V14.01,2013-03-29 19:15:00,
2013-03-29 15:19:00,47.5,29.3,30.11,WNW,297,4.0,8.0,49,0.00,,,0.00,VWS V14.01,2013-03-29 19:19:00,
2013-03-29 15:24:00,47.5,29.8,30.11,WSW,250,3.0,8.0,50,0.00,,,0.00,VWS V14.01,2013-03-29 19:24:00,
2013-03-29 15:29:00,47.5,29.3,30.11,NW,307,4.0,8.0,49,0.00,,,0.00,VWS V14.01,2013-03-29 19:29:00,
2013-03-29 15:30:00,47.5,29.3,30.11,WNW,286,4.0,8.0,49,0.00,,,0.00,VWS V14.01,2013-03-29 19:30:00,
2013-03-29 15:34:00,47.6,29.4,30.11,WNW,289,5.0,11.0,49,0.00,,,0.00,VWS V14.01,2013-03-29 19:34:00,
2013-03-29 15:39:00,47.5,29.3,30.11,NNE,23,0.0,12.0,49,0.00,,,0.00,VWS V14.01,2013-03-29 19:39:00,
2013-03-29 15:44:00,47.5,29.8,30.11,SSW,206,7.0,13.0,50,0.00,,,0.00,VWS V14.01,2013-03-29 19:44:00,
2013-03-29 15:45:00,47.5,29.3,30.11,North,350,0.0,13.0,49,0.00,,,0.00,VWS V14.01,2013-03-29 19:45:00,
2013-03-29 15:49:00,47.5,29.3,30.11,SW,215,2.0,6.0,49,0.00,,,0.00,VWS V14.01,2013-03-29 19:49:00,
2013-03-29 15:54:00,47.6,28.9,30.11,WSW,248,5.0,14.0,48,0.00,,,0.00,VWS V14.01,2013-03-29 19:54:00,
2013-03-29 15:59:00,47.5,28.8,30.11,NNW,338,9.0,15.0,48,0.00,,,0.00,VWS V14.01,2013-03-29 19:59:00,
2013-03-29 16:00:00,47.5,28.8,30.11,SSW,210,10.0,15.0,48,0.00,,,0.00,VWS V14.01,2013-03-29 20:00:00,
2013-03-29 16:04:00,47.6,28.4,30.11,WSW,247,0.0,13.0,47,0.00,,,0.00,VWS V14.01,2013-03-29 20:04:00,
2013-03-29 16:09:00,47.8,29.1,30.11,NNE,15,0.0,13.0,48,0.00,,,0.00,VWS V14.01,2013-03-29 20:09:00,
2013-03-29 16:14:00,47.8,29.1,30.10,WNW,291,8.0,13.0,48,0.00,,,0.00,VWS V14.01,2013-03-29 20:14:00,
2013-03-29 16:15:00,47.8,29.1,30.10,North,350,18.0,18.0,48,0.00,,,0.00,VWS V14.01,2013-03-29 20:15:00,
2013-03-29 16:19:00,47.6,28.4,30.10,West,259,8.0,18.0,47,0.00,,,0.00,VWS V14.01,2013-03-29 20:19:00,
2013-03-29 16:24:00,47.3,28.1,30.10,WNW,301,5.0,18.0,47,0.00,,,0.00,VWS V14.01,2013-03-29 20:24:00,
2013-03-29 16:29:00,47.3,28.1,30.10,WSW,244,2.0,21.0,47,0.00,,,0.00,VWS V14.01,2013-03-29 20:29:00,
2013-03-29 16:30:00,47.3,28.1,30.10,WSW,244,0.0,21.0,47,0.00,,,0.00,VWS V14.01,2013-03-29 20:30:00,
2013-03-29 16:34:00,47.6,27.9,30.10,South,169,5.0,8.0,46,0.00,,,0.00,VWS V14.01,2013-03-29 20:34:00,
2013-03-29 16:39:00,47.6,27.9,30.10,WNW,299,2.0,10.0,46,0.00,,,0.00,VWS V14.01,2013-03-29 20:39:00,
2013-03-29 16:44:00,47.3,28.1,30.10,WSW,242,7.0,19.0,47,0.00,,,0.00,VWS V14.01,2013-03-29 20:44:00,
2013-03-29 16:45:00,47.3,28.1,30.10,NNW,335,2.0,19.0,47,0.00,,,0.00,VWS V14.01,2013-03-29 20:45:00,
2013-03-29 16:49:00,47.3,28.6,30.10,West,260,4.0,9.0,48,0.00,,,0.00,VWS V14.01,2013-03-29 20:49:00,
2013-03-29 16:54:00,47.3,28.6,30.10,West,273,0.0,10.0,48,0.00,,,0.00,VWS V14.01,2013-03-29 20:54:00,
2013-03-29 16:59:00,47.5,28.8,30.11,WSW,246,4.0,10.0,48,0.00,,,0.00,VWS V14.01,2013-03-29 20:59:00,
2013-03-29 17:00:00,47.5,28.8,30.11,SW,221,8.0,10.0,48,0.00,,,0.00,VWS V14.01,2013-03-29 21:00:00,
2013-03-29 17:04:00,47.2,28.5,30.11,West,265,10.0,13.0,48,0.00,,,0.00,VWS V14.01,2013-03-29 21:04:00,
2013-03-29 17:09:00,47.2,28.5,30.11,SW,227,7.0,13.0,48,0.00,,,0.00,VWS V14.01,2013-03-29 21:09:00,
2013-03-29 17:14:00,47.0,28.3,30.11,SW,236,5.0,15.0,48,0.00,,,0.00,VWS V14.01,2013-03-29 21:14:00,
2013-03-29 17:15:00,47.0,28.9,30.11,WSW,251,10.0,15.0,49,0.00,,,0.00,VWS V14.01,2013-03-29 21:15:00,
2013-03-29 17:19:00,47.0,28.3,30.11,WNW,286,3.0,14.0,48,0.00,,,0.00,VWS V14.01,2013-03-29 21:19:00,
2013-03-29 17:24:00,47.2,28.5,30.11,NE,49,9.0,14.0,48,0.00,,,0.00,VWS V14.01,2013-03-29 21:24:00,
2013-03-29 17:29:00,47.5,28.8,30.11,ENE,71,7.0,14.0,48,0.00,,,0.00,VWS V14.01,2013-03-29 21:29:00,
2013-03-29 17:30:00,47.5,28.3,30.11,SSE,162,2.0,14.0,47,0.00,,,0.00,VWS V14.01,2013-03-29 21:30:00,
2013-03-29 17:34:00,47.6,28.4,30.11,WSW,252,0.0,9.0,47,0.00,,,0.00,VWS V14.01,2013-03-29 21:34:00,
2013-03-29 17:39:00,48.1,28.8,30.11,NE,46,2.0,9.0,47,0.00,,,0.00,VWS V14.01,2013-03-29 21:39:00,
2013-03-29 17:44:00,48.8,29.0,30.10,ENE,61,7.0,9.0,46,0.00,,,0.00,VWS V14.01,2013-03-29 21:44:00,
2013-03-29 17:45:00,48.8,28.4,30.10,NNE,24,6.0,10.0,45,0.00,,,0.00,VWS V14.01,2013-03-29 21:45:00,
2013-03-29 17:49:00,49.0,29.1,30.10,NE,44,8.0,11.0,46,0.00,,,0.00,VWS V14.01,2013-03-29 21:49:00,
2013-03-29 17:54:00,48.8,28.4,30.10,NE,53,9.0,12.0,45,0.00,,,0.00,VWS V14.01,2013-03-29 21:54:00,
2013-03-29 17:59:00,48.4,28.6,30.11,NE,46,6.0,12.0,46,0.00,,,0.00,VWS V14.01,2013-03-29 21:59:00,
2013-03-29 18:00:00,48.4,28.6,30.11,NE,37,4.0,12.0,46,0.00,,,0.00,VWS V14.01,2013-03-29 22:00:00,
2013-03-29 18:04:00,48.2,28.4,30.11,NNE,33,7.0,11.0,46,0.00,,,0.00,VWS V14.01,2013-03-29 22:04:00,
2013-03-29 18:09:00,47.9,28.7,30.11,ENE,64,6.0,14.0,47,0.00,,,0.00,VWS V14.01,2013-03-29 22:09:00,
2013-03-29 18:14:00,47.6,28.4,30.11,NE,48,3.0,14.0,47,0.00,,,0.00,VWS V14.01,2013-03-29 22:14:00,
2013-03-29 18:15:00,47.6,28.4,30.11,NE,38,4.0,14.0,47,0.00,,,0.00,VWS V14.01,2013-03-29 22:15:00,
2013-03-29 18:18:00,47.5,28.8,30.11,ENE,75,7.0,8.0,48,0.00,,,0.00,VWS V14.01,2013-03-29 22:18:00,
2013-03-29 18:23:00,47.5,28.3,30.11,ENE,67,4.0,9.0,47,0.00,,,0.00,VWS V14.01,2013-03-29 22:23:00,
2013-03-29 18:28:00,47.5,28.3,30.11,ENE,71,5.0,9.0,47,0.00,,,0.00,VWS V14.01,2013-03-29 22:28:00,
2013-03-29 18:30:00,47.5,28.3,30.11,ENE,64,6.0,9.0,47,0.00,,,0.00,VWS V14.01,2013-03-29 22:30:00,
2013-03-29 18:33:00,47.5,28.8,30.11,NE,40,5.0,8.0,48,0.00,,,0.00,VWS V14.01,2013-03-29 22:33:00,
2013-03-29 18:38:00,47.5,28.8,30.11,ENE,64,0.0,8.0,48,0.00,,,0.00,VWS V14.01,2013-03-29 22:38:00,
2013-03-29 18:43:00,47.5,28.8,30.11,ENE,64,0.0,8.0,48,0.00,,,0.00,VWS V14.01,2013-03-29 22:43:00,
2013-03-29 18:45:00,47.5,28.8,30.11,ENE,64,0.0,8.0,48,0.00,,,0.00,VWS V14.01,2013-03-29 22:45:00,
2013-03-29 18:48:00,47.5,28.8,30.11,WSW,258,0.0,5.0,48,0.00,,,0.00,VWS V14.01,2013-03-29 22:48:00,
2013-03-29 18:53:00,47.3,28.6,30.11,ENE,69,0.0,7.0,48,0.00,,,0.00,VWS V14.01,2013-03-29 22:53:00,
2013-03-29 18:58:00,47.3,28.6,30.11,ENE,69,0.0,7.0,48,0.00,,,0.00,VWS V14.01,2013-03-29 22:58:00,
2013-03-29 19:00:00,47.3,28.6,30.11,ENE,69,0.0,7.0,48,0.00,,,0.00,VWS V14.01,2013-03-29 23:00:00,
2013-03-29 19:03:00,47.2,28.5,30.11,SE,139,0.0,3.0,48,0.00,,,0.00,VWS V14.01,2013-03-29 23:03:00,
2013-03-29 19:08:00,47.2,29.0,30.11,SE,139,0.0,3.0,49,0.00,,,0.00,VWS V14.01,2013-03-29 23:08:00,
2013-03-29 19:13:00,47.0,28.9,30.11,SE,139,0.0,3.0,49,0.00,,,0.00,VWS V14.01,2013-03-29 23:13:00,
2013-03-29 19:15:00,47.0,28.3,30.12,SE,139,0.0,3.0,48,0.00,,,0.00,VWS V14.01,2013-03-29 23:15:00,
2013-03-29 19:18:00,47.0,28.9,30.12,SE,139,0.0,0.0,49,0.00,,,0.00,VWS V14.01,2013-03-29 23:18:00,
2013-03-29 19:23:00,46.9,28.8,30.12,NNE,30,2.0,5.0,49,0.00,,,0.00,VWS V14.01,2013-03-29 23:23:00,
2013-03-29 19:28:00,46.6,28.5,30.12,NE,46,0.0,5.0,49,0.00,,,0.00,VWS V14.01,2013-03-29 23:28:00,
2013-03-29 19:30:00,46.6,29.0,30.12,NE,46,0.0,5.0,50,0.00,,,0.00,VWS V14.01,2013-03-29 23:30:00,
2013-03-29 19:33:00,46.4,28.8,30.12,NE,46,0.0,0.0,50,0.00,,,0.00,VWS V14.01,2013-03-29 23:33:00,
2013-03-29 19:38:00,46.4,28.8,30.12,NE,46,0.0,0.0,50,0.00,,,0.00,VWS V14.01,2013-03-29 23:38:00,
2013-03-29 19:43:00,46.3,28.7,30.12,NE,46,0.0,0.0,50,0.00,,,0.00,VWS V14.01,2013-03-29 23:43:00,
2013-03-29 19:45:00,46.3,28.7,30.12,NE,46,0.0,0.0,50,0.00,,,0.00,VWS V14.01,2013-03-29 23:45:00,
2013-03-29 19:48:00,46.1,28.5,30.12,NE,46,0.0,0.0,50,0.00,,,0.00,VWS V14.01,2013-03-29 23:48:00,
2013-03-29 19:53:00,46.1,29.0,30.12,NE,46,0.0,0.0,51,0.00,,,0.00,VWS V14.01,2013-03-29 23:53:00,
2013-03-29 19:58:00,46.0,28.9,30.12,NE,46,0.0,0.0,51,0.00,,,0.00,VWS V14.01,2013-03-29 23:58:00,
2013-03-29 20:00:00,46.0,28.9,30.12,NE,46,0.0,0.0,51,0.00,,,0.00,VWS V14.01,2013-03-30 00:00:00,
2013-03-29 20:04:00,46.0,29.4,30.12,NE,46,0.0,0.0,52,0.00,,,0.00,VWS V14.01,2013-03-30 00:04:00,
2013-03-29 20:09:00,45.9,29.3,30.12,NE,46,0.0,0.0,52,0.00,,,0.00,VWS V14.01,2013-03-30 00:09:00,
2013-03-29 20:14:00,45.9,29.3,30.13,NE,46,0.0,0.0,52,0.00,,,0.00,VWS V14.01,2013-03-30 00:14:00,
2013-03-29 20:15:00,45.9,29.3,30.13,NE,46,0.0,0.0,52,0.00,,,0.00,VWS V14.01,2013-03-30 00:15:00,
2013-03-29 20:19:00,45.7,29.6,30.13,NE,46,0.0,0.0,53,0.00,,,0.00,VWS V14.01,2013-03-30 00:19:00,
2013-03-29 20:24:00,45.7,29.6,30.13,NE,46,0.0,0.0,53,0.00,,,0.00,VWS V14.01,2013-03-30 00:24:00,
2013-03-29 20:29:00,45.6,30.8,30.13,NE,46,0.0,0.0,56,0.00,,,0.00,VWS V14.01,2013-03-30 00:29:00,
2013-03-29 20:30:00,45.6,30.4,30.13,NE,46,0.0,0.0,55,0.00,,,0.00,VWS V14.01,2013-03-30 00:30:00,
2013-03-29 20:34:00,45.4,30.2,30.13,NE,46,0.0,0.0,55,0.00,,,0.00,VWS V14.01,2013-03-30 00:34:00,
2013-03-29 20:39:00,45.4,29.7,30.13,NE,46,0.0,1.0,54,0.00,,,0.00,VWS V14.01,2013-03-30 00:39:00,
2013-03-29 20:44:00,45.3,30.1,30.13,NE,46,0.0,2.0,55,0.00,,,0.00,VWS V14.01,2013-03-30 00:44:00,
2013-03-29 20:45:00,45.3,29.6,30.13,NE,46,0.0,4.0,54,0.00,,,0.00,VWS V14.01,2013-03-30 00:45:00,
2013-03-29 20:49:00,45.3,29.2,30.13,NE,46,0.0,4.0,53,0.00,,,0.00,VWS V14.01,2013-03-30 00:49:00,
2013-03-29 20:54:00,45.3,29.6,30.13,NNE,28,4.0,4.0,54,0.00,,,0.00,VWS V14.01,2013-03-30 00:54:00,
2013-03-29 20:59:00,45.3,29.6,30.14,WSW,245,1.0,6.0,54,0.00,,,0.00,VWS V14.01,2013-03-30 00:59:00,
2013-03-29 21:00:00,45.3,29.6,30.14,WSW,246,0.0,6.0,54,0.00,,,0.00,VWS V14.01,2013-03-30 01:00:00,
2013-03-29 21:04:00,45.4,30.2,30.14,WNW,298,4.0,7.0,55,0.00,,,0.00,VWS V14.01,2013-03-30 01:04:00,
2013-03-29 21:09:00,45.4,30.6,30.14,WNW,292,4.0,7.0,56,0.00,,,0.00,VWS V14.01,2013-03-30 01:09:00,
2013-03-29 21:14:00,45.3,31.0,30.14,West,274,5.0,7.0,57,0.00,,,0.00,VWS V14.01,2013-03-30 01:14:00,
2013-03-29 21:15:00,45.3,31.4,30.14,West,271,6.0,7.0,58,0.00,,,0.00,VWS V14.01,2013-03-30 01:15:00,
2013-03-29 21:19:00,45.1,31.2,30.14,West,259,8.0,11.0,58,0.00,,,0.00,VWS V14.01,2013-03-30 01:19:00,
2013-03-29 21:24:00,44.8,31.4,30.14,WSW,256,5.0,11.0,59,0.00,,,0.00,VWS V14.01,2013-03-30 01:24:00,
2013-03-29 21:29:00,44.5,31.5,30.15,WSW,252,5.0,11.0,60,0.00,,,0.00,VWS V14.01,2013-03-30 01:29:00,
2013-03-29 21:30:00,44.5,31.5,30.15,WNW,284,4.0,11.0,60,0.00,,,0.00,VWS V14.01,2013-03-30 01:30:00,
2013-03-29 21:34:00,44.4,31.8,30.15,WSW,246,4.0,8.0,61,0.00,,,0.00,VWS V14.01,2013-03-30 01:34:00,
2013-03-29 21:39:00,44.2,31.6,30.15,SW,226,0.0,8.0,61,0.00,,,0.00,VWS V14.01,2013-03-30 01:39:00,
2013-03-29 21:44:00,44.1,31.5,30.15,WSW,252,0.0,8.0,61,0.00,,,0.00,VWS V14.01,2013-03-30 01:44:00,
2013-03-29 21:45:00,44.0,31.4,30.15,WSW,252,0.0,8.0,61,0.00,,,0.00,VWS V14.01,2013-03-30 01:45:00,
2013-03-29 21:49:00,44.0,31.4,30.15,West,263,0.0,4.0,61,0.00,,,0.00,VWS V14.01,2013-03-30 01:49:00,
2013-03-29 21:54:00,43.8,31.2,30.15,West,263,2.0,5.0,61,0.00,,,0.00,VWS V14.01,2013-03-30 01:54:00,
2013-03-29 21:58:00,43.7,31.5,30.15,WSW,256,0.0,5.0,62,0.00,,,0.00,VWS V14.01,2013-03-30 01:58:00,
2013-03-29 22:00:00,43.7,31.5,30.15,WSW,256,0.0,5.0,62,0.00,,,0.00,VWS V14.01,2013-03-30 02:00:00,
2013-03-29 22:03:00,43.5,31.4,30.15,WSW,256,0.0,0.0,62,0.00,,,0.00,VWS V14.01,2013-03-30 02:03:00,
2013-03-29 22:08:00,43.2,31.1,30.15,WSW,256,6.0,6.0,62,0.00,,,0.00,VWS V14.01,2013-03-30 02:08:00,
2013-03-29 22:13:00,42.8,31.1,30.15,WSW,244,4.0,7.0,63,0.00,,,0.00,VWS V14.01,2013-03-30 02:13:00,
2013-03-29 22:15:00,42.8,31.1,30.15,WSW,257,5.0,7.0,63,0.00,,,0.00,VWS V14.01,2013-03-30 02:15:00,
2013-03-29 22:18:00,42.7,31.0,30.15,WSW,257,2.0,7.0,63,0.00,,,0.00,VWS V14.01,2013-03-30 02:18:00,
2013-03-29 22:23:00,42.7,31.0,30.15,West,269,5.0,7.0,63,0.00,,,0.00,VWS V14.01,2013-03-30 02:23:00,
2013-03-29 22:28:00,42.7,30.6,30.15,WSW,254,4.0,8.0,62,0.00,,,0.00,VWS V14.01,2013-03-30 02:28:00,
2013-03-29 22:30:00,42.7,30.6,30.15,WSW,246,5.0,8.0,62,0.00,,,0.00,VWS V14.01,2013-03-30 02:30:00,
2013-03-29 22:33:00,42.7,30.6,30.15,WSW,246,7.0,7.0,62,0.00,,,0.00,VWS V14.01,2013-03-30 02:33:00,
2013-03-29 22:38:00,42.5,30.8,30.15,SW,234,2.0,7.0,63,0.00,,,0.00,VWS V14.01,2013-03-30 02:38:00,
2013-03-29 22:43:00,42.4,30.7,30.15,SW,234,0.0,7.0,63,0.00,,,0.00,VWS V14.01,2013-03-30 02:43:00,
2013-03-29 22:45:00,42.4,30.7,30.15,SW,234,3.0,7.0,63,0.00,,,0.00,VWS V14.01,2013-03-30 02:45:00,
2013-03-29 22:48:00,42.2,30.5,30.15,WSW,250,0.0,3.0,63,0.00,,,0.00,VWS V14.01,2013-03-30 02:48:00,
2013-03-29 22:54:00,42.1,30.8,30.15,WSW,249,0.0,3.0,64,0.00,,,0.00,VWS V14.01,2013-03-30 02:54:00,
2013-03-29 22:58:00,42.0,30.7,30.15,WSW,249,0.0,3.0,64,0.00,,,0.00,VWS V14.01,2013-03-30 02:58:00,
2013-03-29 23:00:00,41.8,30.5,30.15,WSW,249,0.0,3.0,64,0.00,,,0.00,VWS V14.01,2013-03-30 03:00:00,
2013-03-29 23:03:00,41.7,30.4,30.15,WSW,249,0.0,2.0,64,0.00,,,0.00,VWS V14.01,2013-03-30 03:03:00,
2013-03-29 23:08:00,41.5,30.6,30.15,WSW,249,0.0,2.0,65,0.00,,,0.00,VWS V14.01,2013-03-30 03:08:00,
2013-03-29 23:13:00,41.2,30.7,30.15,WSW,249,0.0,2.0,66,0.00,,,0.00,VWS V14.01,2013-03-30 03:13:00,
2013-03-29 23:15:00,41.2,30.7,30.15,WSW,249,0.0,2.0,66,0.00,,,0.00,VWS V14.01,2013-03-30 03:15:00,
2013-03-29 23:18:00,41.0,30.5,30.15,WSW,249,0.0,0.0,66,0.00,,,0.00,VWS V14.01,2013-03-30 03:18:00,
2013-03-29 23:23:00,40.7,30.2,30.15,WSW,249,0.0,0.0,66,0.00,,,0.00,VWS V14.01,2013-03-30 03:23:00,
2013-03-29 23:28:00,40.4,30.3,30.15,WSW,249,0.0,0.0,67,0.00,,,0.00,VWS V14.01,2013-03-30 03:28:00,
2013-03-29 23:30:00,40.4,30.3,30.15,WSW,249,0.0,0.0,67,0.00,,,0.00,VWS V14.01,2013-03-30 03:30:00,
2013-03-29 23:33:00,40.0,30.7,30.15,WSW,249,0.0,0.0,69,0.00,,,0.00,VWS V14.01,2013-03-30 03:33:00,
2013-03-29 23:38:00,39.4,30.8,30.15,WSW,249,0.0,0.0,71,0.00,,,0.00,VWS V14.01,2013-03-30 03:38:00,
2013-03-29 23:43:00,39.1,30.5,30.15,WSW,249,0.0,0.0,71,0.00,,,0.00,VWS V14.01,2013-03-30 03:43:00,
2013-03-29 23:45:00,39.0,30.4,30.15,WSW,249,0.0,0.0,71,0.00,,,0.00,VWS V14.01,2013-03-30 03:45:00,
2013-03-29 23:48:00,38.7,30.8,30.15,WSW,249,0.0,0.0,73,0.00,,,0.00,VWS V14.01,2013-03-30 03:48:00,
2013-03-29 23:53:00,38.1,30.9,30.15,NNW,333,1.0,2.0,75,0.00,,,0.00,VWS V14.01,2013-03-30 03:53:00,
2013-03-29 23:58:00,37.5,30.3,30.15,NNW,333,0.0,2.0,75,0.00,,,0.00,VWS V14.01,2013-03-30 03:58:00,